| time (UTC) | temp C | wind direction | speed KPH | gust KPH | rain 1hr cm | rain 24hr cm | rain mn cm | humidity % | barometer mb |
| 20260510045430 | 11 | 10 | 0.0 | 0.0 | 0.00 | 0.00 | 0.00 | 78 | 1014.4 |
| 20260510044926 | 11 | 264 | 0.0 | 0.0 | 0.00 | 0.00 | 0.00 | 76 | 1014.2 |
| 20260510044423 | 11 | 252 | 0.0 | 3.2 | 0.00 | 0.00 | 0.00 | 76 | 1014.2 |
| 20260510043920 | 11 | 239 | 0.0 | 3.2 | 0.00 | 0.00 | 0.00 | 77 | 1014.2 |
| 20260510043416 | 11 | 231 | 1.6 | 3.2 | 0.00 | 0.00 | 0.00 | 79 | 1014.0 |
| 20260510042914 | 11 | 253 | 0.0 | 0.0 | 0.00 | 0.00 | 0.00 | 79 | 1014.1 |
| 20260510042410 | 11 | 253 | 0.0 | 0.0 | 0.00 | 0.00 | 0.00 | 79 | 1013.7 |
| 20260510041906 | 10 | 253 | 0.0 | 0.0 | 0.00 | 0.00 | 0.00 | 79 | 1013.7 |
| 20260510041403 | 10 | 253 | 0.0 | 0.0 | 0.00 | 0.00 | 0.00 | 78 | 1013.7 |
| 20260510040901 | 10 | 254 | 0.0 | 0.0 | 0.00 | 0.00 | 0.00 | 78 | 1013.7 |
| 20260510040358 | 10 | 254 | 0.0 | 0.0 | 0.00 | 0.00 | 0.00 | 77 | 1013.9 |
| 20260510035853 | 11 | 254 | 0.0 | 0.0 | 0.00 | 0.00 | 0.00 | 77 | 1013.7 |
| 20260510035349 | 11 | 254 | 0.0 | 0.0 | 0.00 | 0.00 | 0.00 | 76 | 1013.8 |
| 20260510034844 | 11 | 260 | 0.0 | 0.0 | 0.00 | 0.00 | 0.00 | 76 | 1013.7 |
| 20260510034343 | 11 | 260 | 0.0 | 0.0 | 0.00 | 0.00 | 0.00 | 75 | 1013.9 |
| 20260510033839 | 11 | 213 | 0.0 | 0.0 | 0.00 | 0.00 | 0.00 | 74 | 1013.9 |
| 20260510033336 | 11 | 214 | 0.0 | 0.0 | 0.00 | 0.00 | 0.00 | 74 | 1013.9 |
| 20260510032832 | 11 | 212 | 0.0 | 0.0 | 0.00 | 0.00 | 0.00 | 74 | 1013.9 |
| 20260510032329 | 11 | 273 | 0.0 | 0.0 | 0.00 | 0.00 | 0.00 | 72 | 1013.7 |
| 20260510031825 | 11 | 273 | 0.0 | 0.0 | 0.00 | 0.00 | 0.00 | 73 | 1013.6 |
| 20260510031320 | 12 | 273 | 0.0 | 0.0 | 0.00 | 0.00 | 0.00 | 72 | 1013.7 |
| 20260510030815 | 12 | 33 | 0.0 | 0.0 | 0.00 | 0.00 | 0.00 | 72 | 1013.8 |
| 20260510030311 | 12 | 55 | 0.0 | 0.0 | 0.00 | 0.00 | 0.00 | 71 | 1013.8 |
| 20260510025809 | 12 | 268 | 0.0 | 0.0 | 0.00 | 0.00 | 0.00 | 69 | 1013.5 |
| 20260510025306 | 12 | 239 | 0.0 | 0.0 | 0.00 | 0.00 | 0.00 | 70 | 1013.9 |
| 20260510024802 | 12 | 252 | 0.0 | 0.0 | 0.00 | 0.00 | 0.00 | 69 | 1013.8 |
| 20260510024300 | 12 | 247 | 0.0 | 0.0 | 0.00 | 0.00 | 0.00 | 71 | 1013.8 |
| 20260510023755 | 12 | 247 | 0.0 | 0.0 | 0.00 | 0.00 | 0.00 | 70 | 1013.6 |
| 20260510023253 | 12 | 247 | 0.0 | 1.6 | 0.00 | 0.00 | 0.00 | 69 | 1013.5 |
| 20260510022749 | 12 | 244 | 0.0 | 0.0 | 0.00 | 0.00 | 0.00 | 70 | 1013.6 |
| 20260510022249 | 12 | 245 | 0.0 | 0.0 | 0.00 | 0.00 | 0.00 | 69 | 1013.5 |
| 20260510021749 | 12 | 245 | 0.0 | 0.0 | 0.00 | 0.00 | 0.00 | 68 | 1013.3 |
| 20260510021247 | 12 | 245 | 0.0 | 0.0 | 0.00 | 0.00 | 0.00 | 68 | 1013.3 |
| 20260510020742 | 13 | 245 | 0.0 | 0.0 | 0.00 | 0.00 | 0.00 | 66 | 1013.0 |
| 20260510020242 | 13 | 245 | 0.0 | 0.0 | 0.00 | 0.00 | 0.00 | 66 | 1013.0 |
| 20260510015739 | 13 | 245 | 0.0 | 1.6 | 0.00 | 0.00 | 0.00 | 66 | 1013.0 |
| 20260510015235 | 13 | 245 | 0.0 | 1.6 | 0.00 | 0.00 | 0.00 | 66 | 1012.9 |
| 20260510014730 | 13 | 249 | 1.6 | 3.2 | 0.00 | 0.00 | 0.00 | 64 | 1012.9 |
| 20260510014228 | 14 | 248 | 0.0 | 1.6 | 0.00 | 0.00 | 0.00 | 63 | 1012.8 |
| 20260510013723 | 15 | 248 | 3.2 | 3.2 | 0.00 | 0.00 | 0.00 | 60 | 1012.4 |
| 20260510013219 | 14 | 250 | 3.2 | 3.2 | 0.00 | 0.00 | 0.00 | 61 | 1012.4 |
| 20260510012719 | 13 | 245 | 0.0 | 0.0 | 0.00 | 0.00 | 0.00 | 64 | 1012.5 |
| 20260510012214 | 13 | 245 | 0.0 | 0.0 | 0.00 | 0.00 | 0.00 | 62 | 1012.3 |
| 20260510011709 | 14 | 244 | 0.0 | 0.0 | 0.00 | 0.00 | 0.00 | 61 | 1012.2 |
| 20260510011205 | 14 | 243 | 0.0 | 0.0 | 0.00 | 0.00 | 0.00 | 61 | 1012.0 |
| 20260510010701 | 14 | 243 | 0.0 | 0.0 | 0.00 | 0.00 | 0.00 | 61 | 1012.0 |
| 20260510010158 | 15 | 243 | 0.0 | 0.0 | 0.00 | 0.00 | 0.00 | 59 | 1011.9 |
| 20260510005655 | 15 | 246 | 3.2 | 3.2 | 0.00 | 0.00 | 0.00 | 56 | 1011.7 |
| 20260510005151 | 15 | 244 | 1.6 | 3.2 | 0.00 | 0.00 | 0.00 | 56 | 1011.7 |
| 20260510004650 | 15 | 244 | 3.2 | 3.2 | 0.00 | 0.00 | 0.00 | 56 | 1011.9 |
| 20260510004148 | 15 | 223 | 4.8 | 4.8 | 0.00 | 0.00 | 0.00 | 57 | 1011.6 |
| 20260510003645 | 16 | 240 | 3.2 | 3.2 | 0.00 | 0.00 | 0.00 | 55 | 1011.6 |
| 20260510003140 | 16 | 240 | 3.2 | 3.2 | 0.00 | 0.00 | 0.00 | 55 | 1011.5 |
| 20260510002635 | 16 | 241 | 3.2 | 3.2 | 0.00 | 0.00 | 0.00 | 55 | 1011.5 |
| 20260510002132 | 16 | 239 | 3.2 | 3.2 | 0.00 | 0.00 | 0.00 | 54 | 1011.4 |
| 20260510001629 | 16 | 243 | 3.2 | 3.2 | 0.00 | 0.00 | 0.00 | 54 | 1011.4 |
| 20260510001128 | 16 | 226 | 0.0 | 3.2 | 0.00 | 0.00 | 0.00 | 53 | 1011.5 |
| 20260510000627 | 16 | 248 | 3.2 | 4.8 | 0.00 | 0.00 | 0.00 | 52 | 1011.3 |
| 20260510000125 | 16 | 226 | 3.2 | 3.2 | 0.00 | 0.00 | 0.00 | 53 | 1011.1 |
| 20260509235621 | 17 | 213 | 1.6 | 3.2 | 0.00 | 0.00 | 0.00 | 52 | 1011.1 |
| 20260509235118 | 17 | 231 | 3.2 | 3.2 | 0.00 | 0.00 | 0.00 | 53 | 1011.0 |
| 20260509234614 | 17 | 247 | 3.2 | 3.2 | 0.00 | 0.00 | 0.00 | 53 | 1011.1 |
| 20260509234112 | 17 | 239 | 1.6 | 4.8 | 0.00 | 0.00 | 0.00 | 52 | 1011.2 |
| 20260509233610 | 17 | 250 | 3.2 | 3.2 | 0.00 | 0.00 | 0.00 | 52 | 1011.1 |
| 20260509233107 | 17 | 223 | 0.0 | 6.4 | 0.00 | 0.00 | 0.00 | 53 | 1011.2 |
| 20260509232603 | 18 | 198 | 1.6 | 3.2 | 0.00 | 0.00 | 0.00 | 50 | 1011.1 |
| 20260509232100 | 18 | 147 | 4.8 | 9.7 | 0.00 | 0.00 | 0.00 | 46 | 1011.2 |
| 20260509231556 | 18 | 109 | 4.8 | 4.8 | 0.00 | 0.00 | 0.00 | 47 | 1011.2 |
| 20260509231054 | 19 | 140 | 3.2 | 9.7 | 0.00 | 0.00 | 0.00 | 45 | 1011.2 |
| 20260509230550 | 19 | 193 | 4.8 | 6.4 | 0.00 | 0.00 | 0.00 | 49 | 1011.0 |
| 20260509230048 | 20 | 187 | 3.2 | 4.8 | 0.00 | 0.00 | 0.00 | 45 | 1011.2 |
| 20260509225543 | 20 | 190 | 0.0 | 1.6 | 0.00 | 0.00 | 0.00 | 45 | 1011.1 |
| 20260509225039 | 20 | 151 | 0.0 | 3.2 | 0.00 | 0.00 | 0.00 | 46 | 1011.1 |
| 20260509224535 | 20 | 19 | 1.6 | 1.6 | 0.00 | 0.00 | 0.00 | 43 | 1011.3 |
| 20260509224032 | 20 | 20 | 0.0 | 0.0 | 0.00 | 0.00 | 0.00 | 48 | 1011.0 |
| 20260509223529 | 20 | 19 | 0.0 | 3.2 | 0.00 | 0.00 | 0.00 | 44 | 1011.1 |
| 20260509223027 | 20 | 312 | 0.0 | 1.6 | 0.00 | 0.00 | 0.00 | 45 | 1011.0 |
| 20260509222522 | 20 | 329 | 1.6 | 3.2 | 0.00 | 0.00 | 0.00 | 46 | 1011.0 |
| 20260509222018 | 20 | 128 | 1.6 | 4.8 | 0.00 | 0.00 | 0.00 | 42 | 1011.1 |
| 20260509221514 | 20 | 18 | 3.2 | 3.2 | 0.00 | 0.00 | 0.00 | 43 | 1011.2 |
| 20260509221010 | 20 | 70 | 1.6 | 3.2 | 0.00 | 0.00 | 0.00 | 42 | 1011.1 |
| 20260509220506 | 20 | 102 | 0.0 | 0.0 | 0.00 | 0.00 | 0.00 | 42 | 1011.0 |
| 20260509220003 | 20 | 93 | 0.0 | 4.8 | 0.00 | 0.00 | 0.00 | 42 | 1010.9 |
| 20260509215458 | 20 | 102 | 0.0 | 6.4 | 0.00 | 0.00 | 0.00 | 42 | 1010.9 |
| 20260509214956 | 20 | 21 | 1.6 | 3.2 | 0.00 | 0.00 | 0.00 | 42 | 1010.9 |
| 20260509214453 | 20 | 2 | 0.0 | 3.2 | 0.00 | 0.00 | 0.00 | 42 | 1010.8 |
| 20260509213949 | 20 | 42 | 3.2 | 4.8 | 0.00 | 0.00 | 0.00 | 42 | 1010.7 |
| 20260509213445 | 20 | 12 | 4.8 | 4.8 | 0.00 | 0.00 | 0.00 | 44 | 1010.8 |
| 20260509212943 | 20 | 13 | 3.2 | 3.2 | 0.00 | 0.00 | 0.00 | 40 | 1010.5 |
| 20260509212440 | 21 | 27 | 6.4 | 6.4 | 0.00 | 0.00 | 0.00 | 41 | 1010.5 |
| 20260509211936 | 21 | 60 | 1.6 | 3.2 | 0.00 | 0.00 | 0.00 | 39 | 1010.5 |
| 20260509211432 | 21 | 136 | 3.2 | 4.8 | 0.00 | 0.00 | 0.00 | 40 | 1010.5 |
| 20260509210928 | 21 | 198 | 1.6 | 3.2 | 0.00 | 0.00 | 0.00 | 39 | 1010.5 |
| 20260509210426 | 21 | 0 | 4.8 | 9.7 | 0.00 | 0.00 | 0.00 | 38 | 1010.4 |
| 20260509205921 | 21 | 43 | 1.6 | 1.6 | 0.00 | 0.00 | 0.00 | 37 | 1010.2 |
| 20260509205420 | 21 | 114 | 0.0 | 0.0 | 0.00 | 0.00 | 0.00 | 38 | 1010.2 |
| 20260509204917 | 21 | 146 | 1.6 | 3.2 | 0.00 | 0.00 | 0.00 | 37 | 1010.2 |
| 20260509204413 | 21 | 206 | 0.0 | 3.2 | 0.00 | 0.00 | 0.00 | 37 | 1010.2 |
| 20260509203910 | 21 | 114 | 6.4 | 11.3 | 0.00 | 0.00 | 0.00 | 38 | 1010.2 |
| 20260509203406 | 21 | 10 | 1.6 | 3.2 | 0.00 | 0.00 | 0.00 | 42 | 1010.0 |
| 20260509202903 | 21 | 68 | 0.0 | 1.6 | 0.00 | 0.00 | 0.00 | 37 | 1010.0 |
| 20260509202359 | 21 | 169 | 3.2 | 11.3 | 0.00 | 0.00 | 0.00 | 36 | 1010.1 |
| 20260509201854 | 21 | 96 | 0.0 | 0.0 | 0.00 | 0.00 | 0.00 | 35 | 1010.0 |
| 20260509201350 | 21 | 187 | 0.0 | 3.2 | 0.00 | 0.00 | 0.00 | 38 | 1009.7 |
| 20260509200847 | 21 | 153 | 4.8 | 4.8 | 0.00 | 0.00 | 0.00 | 35 | 1010.0 |
| 20260509200342 | 22 | 145 | 3.2 | 4.8 | 0.00 | 0.00 | 0.00 | 35 | 1009.8 |
| 20260509195840 | 22 | 64 | 6.4 | 6.4 | 0.00 | 0.00 | 0.00 | 35 | 1010.1 |
| 20260509195339 | 21 | 43 | 0.0 | 3.2 | 0.00 | 0.00 | 0.00 | 39 | 1010.0 |
| 20260509194839 | 21 | 121 | 3.2 | 3.2 | 0.00 | 0.00 | 0.00 | 39 | 1009.8 |
| 20260509194335 | 21 | 138 | 1.6 | 3.2 | 0.00 | 0.00 | 0.00 | 40 | 1010.0 |
| 20260509193832 | 21 | 167 | 3.2 | 6.4 | 0.00 | 0.00 | 0.00 | 41 | 1010.0 |
| 20260509193332 | 21 | 184 | 1.6 | 11.3 | 0.00 | 0.00 | 0.00 | 41 | 1010.0 |
| 20260509192829 | 21 | 170 | 8.0 | 11.3 | 0.00 | 0.00 | 0.00 | 40 | 1009.8 |
| 20260509192325 | 22 | 133 | 4.8 | 11.3 | 0.00 | 0.00 | 0.00 | 40 | 1010.1 |
| 20260509191820 | 22 | 90 | 3.2 | 9.7 | 0.00 | 0.00 | 0.00 | 41 | 1010.2 |
| 20260509191316 | 21 | 118 | 4.8 | 12.9 | 0.00 | 0.00 | 0.00 | 42 | 1010.3 |
| 20260509190812 | 21 | 154 | 1.6 | 4.8 | 0.00 | 0.00 | 0.00 | 43 | 1010.2 |
| 20260509190310 | 21 | 162 | 6.4 | 9.7 | 0.00 | 0.00 | 0.00 | 44 | 1010.4 |
| 20260509185807 | 20 | 175 | 6.4 | 11.3 | 0.00 | 0.00 | 0.00 | 46 | 1010.4 |
| 20260509185306 | 21 | 186 | 8.0 | 11.3 | 0.00 | 0.00 | 0.00 | 43 | 1010.1 |
| 20260509184800 | 21 | 143 | 3.2 | 9.7 | 0.00 | 0.00 | 0.00 | 43 | 1010.4 |
| 20260509184258 | 21 | 169 | 8.0 | 11.3 | 0.00 | 0.00 | 0.00 | 40 | 1010.4 |
| 20260509183754 | 21 | 54 | 6.4 | 12.9 | 0.00 | 0.00 | 0.00 | 43 | 1010.6 |
| 20260509183250 | 21 | 95 | 1.6 | 6.4 | 0.00 | 0.00 | 0.00 | 43 | 1010.7 |
| 20260509182745 | 21 | 46 | 4.8 | 11.3 | 0.00 | 0.00 | 0.00 | 44 | 1010.6 |
| 20260509182237 | 21 | 150 | 0.0 | 4.8 | 0.00 | 0.00 | 0.00 | 43 | 1010.7 |
| 20260509181734 | 20 | 167 | 0.0 | 4.8 | 0.00 | 0.00 | 0.00 | 50 | 1011.0 |
| 20260509181232 | 21 | 121 | 0.0 | 1.6 | 0.00 | 0.00 | 0.00 | 46 | 1011.2 |
| 20260509180729 | 20 | 176 | 0.0 | 1.6 | 0.00 | 0.00 | 0.00 | 43 | 1011.2 |
| 20260509180225 | 19 | 19 | 3.2 | 6.4 | 0.00 | 0.00 | 0.00 | 47 | 1011.2 |
| 20260509175721 | 20 | 67 | 3.2 | 4.8 | 0.00 | 0.00 | 0.00 | 49 | 1011.3 |
| 20260509175218 | 20 | 62 | 1.6 | 3.2 | 0.00 | 0.00 | 0.00 | 48 | 1011.5 |
| 20260509174714 | 19 | 132 | 0.0 | 1.6 | 0.00 | 0.00 | 0.00 | 50 | 1011.6 |
| 20260509174209 | 18 | 134 | 1.6 | 3.2 | 0.00 | 0.00 | 0.00 | 52 | 1011.8 |
| 20260509173705 | 18 | 134 | 1.6 | 1.6 | 0.00 | 0.00 | 0.00 | 51 | 1011.7 |
| 20260509173155 | 17 | 67 | 3.2 | 3.2 | 0.00 | 0.00 | 0.00 | 54 | 1012.2 |
| 20260509172652 | 18 | 28 | 0.0 | 3.2 | 0.00 | 0.00 | 0.00 | 51 | 1011.9 |
| 20260509172149 | 17 | 340 | 0.0 | 3.2 | 0.00 | 0.00 | 0.00 | 56 | 1012.0 |
| 20260509171643 | 17 | 1 | 4.8 | 6.4 | 0.00 | 0.00 | 0.00 | 56 | 1012.2 |
| 20260509171140 | 16 | 346 | 4.8 | 6.4 | 0.00 | 0.00 | 0.00 | 57 | 1012.3 |
| 20260509170636 | 16 | 349 | 4.8 | 6.4 | 0.00 | 0.00 | 0.00 | 57 | 1012.3 |
| 20260509170133 | 16 | 0 | 1.6 | 1.6 | 0.00 | 0.00 | 0.00 | 64 | 1012.3 |
| 20260509165631 | 16 | 335 | 1.6 | 6.4 | 0.00 | 0.00 | 0.00 | 62 | 1012.5 |
| 20260509165127 | 16 | 23 | 4.8 | 6.4 | 0.00 | 0.00 | 0.00 | 63 | 1012.3 |
| 20260509164623 | 16 | 342 | 0.0 | 3.2 | 0.00 | 0.00 | 0.00 | 64 | 1012.3 |
| 20260509164119 | 15 | 281 | 0.0 | 0.0 | 0.00 | 0.00 | 0.00 | 71 | 1012.5 |
| 20260509163617 | 15 | 31 | 0.0 | 3.2 | 0.00 | 0.00 | 0.00 | 69 | 1012.3 |
| 20260509163112 | 15 | 325 | 3.2 | 3.2 | 0.00 | 0.00 | 0.00 | 63 | 1012.4 |
| 20260509162610 | 15 | 355 | 4.8 | 9.7 | 0.00 | 0.00 | 0.00 | 61 | 1012.4 |
| 20260509162106 | 15 | 323 | 1.6 | 6.4 | 0.00 | 0.00 | 0.00 | 58 | 1012.5 |
| 20260509161602 | 16 | 349 | 9.7 | 14.5 | 0.00 | 0.00 | 0.00 | 55 | 1012.3 |
| 20260509161057 | 16 | 333 | 8.0 | 12.9 | 0.00 | 0.00 | 0.00 | 55 | 1012.3 |
| 20260509160553 | 16 | 323 | 4.8 | 4.8 | 0.00 | 0.00 | 0.00 | 54 | 1012.2 |
| 20260509160048 | 17 | 352 | 6.4 | 6.4 | 0.00 | 0.00 | 0.00 | 53 | 1011.9 |
| 20260509155545 | 17 | 326 | 8.0 | 12.9 | 0.00 | 0.00 | 0.00 | 52 | 1011.9 |
| 20260509155041 | 18 | 0 | 9.7 | 12.9 | 0.00 | 0.00 | 0.00 | 52 | 1011.8 |
| 20260509154537 | 18 | 348 | 3.2 | 11.3 | 0.00 | 0.00 | 0.00 | 50 | 1011.9 |
| 20260509154035 | 18 | 359 | 3.2 | 4.8 | 0.00 | 0.00 | 0.00 | 51 | 1011.9 |
| 20260509153532 | 18 | 329 | 1.6 | 6.4 | 0.00 | 0.00 | 0.00 | 50 | 1011.7 |
| 20260509153029 | 18 | 341 | 1.6 | 3.2 | 0.00 | 0.00 | 0.00 | 48 | 1011.9 |
| 20260509152524 | 18 | 5 | 1.6 | 4.8 | 0.00 | 0.00 | 0.00 | 51 | 1011.5 |
| 20260509152022 | 18 | 357 | 3.2 | 6.4 | 0.00 | 0.00 | 0.00 | 48 | 1011.6 |
| 20260509151518 | 18 | 8 | 4.8 | 6.4 | 0.00 | 0.00 | 0.00 | 48 | 1011.5 |
| 20260509151016 | 18 | 353 | 3.2 | 6.4 | 0.00 | 0.00 | 0.00 | 50 | 1011.7 |
| 20260509150513 | 19 | 235 | 0.0 | 3.2 | 0.00 | 0.00 | 0.00 | 45 | 1011.9 |
| 20260509150012 | 18 | 71 | 1.6 | 1.6 | 0.00 | 0.00 | 0.00 | 46 | 1012.0 |
| 20260509145507 | 18 | 96 | 1.6 | 4.8 | 0.00 | 0.00 | 0.00 | 46 | 1012.0 |
| 20260509145002 | 18 | 139 | 1.6 | 3.2 | 0.00 | 0.00 | 0.00 | 46 | 1012.0 |
| 20260509144459 | 18 | 154 | 3.2 | 3.2 | 0.00 | 0.00 | 0.00 | 48 | 1011.7 |
| 20260509143956 | 18 | 147 | 0.0 | 3.2 | 0.00 | 0.00 | 0.00 | 47 | 1011.9 |
| 20260509143453 | 18 | 62 | 0.0 | 4.8 | 0.00 | 0.00 | 0.00 | 47 | 1011.8 |
| 20260509142950 | 18 | 180 | 4.8 | 6.4 | 0.00 | 0.00 | 0.00 | 47 | 1012.0 |
| 20260509142446 | 17 | 63 | 0.0 | 4.8 | 0.00 | 0.00 | 0.00 | 51 | 1011.9 |
| 20260509141942 | 17 | 161 | 4.8 | 6.4 | 0.00 | 0.00 | 0.00 | 51 | 1011.9 |
| 20260509141438 | 17 | 170 | 6.4 | 9.7 | 0.00 | 0.00 | 0.00 | 52 | 1012.2 |
| 20260509140936 | 17 | 184 | 3.2 | 6.4 | 0.00 | 0.00 | 0.00 | 51 | 1012.2 |
| 20260509140432 | 17 | 145 | 4.8 | 11.3 | 0.00 | 0.00 | 0.00 | 51 | 1012.4 |
| 20260509135930 | 17 | 160 | 1.6 | 9.7 | 0.00 | 0.00 | 0.00 | 53 | 1012.2 |
| 20260509135427 | 17 | 131 | 3.2 | 6.4 | 0.00 | 0.00 | 0.00 | 54 | 1012.3 |
| 20260509134924 | 17 | 191 | 1.6 | 4.8 | 0.00 | 0.00 | 0.00 | 53 | 1012.5 |
| 20260509134422 | 16 | 88 | 3.2 | 9.7 | 0.00 | 0.00 | 0.00 | 57 | 1012.4 |
| 20260509133919 | 16 | 123 | 1.6 | 3.2 | 0.00 | 0.00 | 0.00 | 56 | 1012.6 |
| 20260509133416 | 16 | 130 | 3.2 | 4.8 | 0.00 | 0.00 | 0.00 | 59 | 1012.7 |
| 20260509132914 | 15 | 100 | 0.0 | 0.0 | 0.00 | 0.00 | 0.00 | 57 | 1012.7 |
| 20260509132412 | 15 | 114 | 1.6 | 4.8 | 0.00 | 0.00 | 0.00 | 59 | 1012.8 |
| 20260509131909 | 15 | 26 | 1.6 | 3.2 | 0.00 | 0.00 | 0.00 | 57 | 1012.8 |
| 20260509131406 | 15 | 214 | 0.0 | 0.0 | 0.00 | 0.00 | 0.00 | 56 | 1013.0 |
| 20260509130902 | 14 | 138 | 0.0 | 0.0 | 0.00 | 0.00 | 0.00 | 58 | 1013.1 |
| 20260509130357 | 14 | 174 | 1.6 | 1.6 | 0.00 | 0.00 | 0.00 | 58 | 1013.0 |
| 20260509125855 | 14 | 222 | 0.0 | 1.6 | 0.00 | 0.00 | 0.00 | 58 | 1012.7 |
| 20260509125351 | 14 | 236 | 0.0 | 0.0 | 0.00 | 0.00 | 0.00 | 59 | 1012.8 |
| 20260509124847 | 13 | 235 | 0.0 | 0.0 | 0.00 | 0.00 | 0.00 | 59 | 1012.6 |
| 20260509124345 | 13 | 331 | 0.0 | 1.6 | 0.00 | 0.00 | 0.00 | 61 | 1012.6 |
| 20260509123843 | 13 | 279 | 0.0 | 0.0 | 0.00 | 0.00 | 0.00 | 58 | 1012.6 |
| 20260509123340 | 13 | 257 | 0.0 | 0.0 | 0.00 | 0.00 | 0.00 | 58 | 1012.7 |
| 20260509122835 | 13 | 257 | 0.0 | 1.6 | 0.00 | 0.00 | 0.00 | 61 | 1012.8 |
| 20260509122332 | 13 | 245 | 0.0 | 0.0 | 0.00 | 0.00 | 0.00 | 61 | 1012.7 |
| 20260509121829 | 12 | 245 | 0.0 | 0.0 | 0.00 | 0.00 | 0.00 | 64 | 1012.7 |
| 20260509121326 | 12 | 245 | 0.0 | 0.0 | 0.00 | 0.00 | 0.00 | 66 | 1012.6 |
| 20260509120824 | 12 | 245 | 0.0 | 0.0 | 0.00 | 0.00 | 0.00 | 67 | 1012.8 |
| 20260509120322 | 12 | 245 | 0.0 | 0.0 | 0.00 | 0.00 | 0.00 | 67 | 1012.8 |
| 20260509115820 | 12 | 245 | 0.0 | 0.0 | 0.00 | 0.00 | 0.00 | 68 | 1012.9 |
| 20260509115316 | 11 | 245 | 0.0 | 1.6 | 0.00 | 0.00 | 0.00 | 68 | 1013.0 |
| 20260509114814 | 11 | 245 | 0.0 | 1.6 | 0.00 | 0.00 | 0.00 | 63 | 1012.8 |
| 20260509114313 | 11 | 245 | 0.0 | 0.0 | 0.00 | 0.00 | 0.00 | 67 | 1012.9 |
| 20260509113812 | 11 | 246 | 1.6 | 1.6 | 0.00 | 0.00 | 0.00 | 67 | 1013.1 |
| 20260509113308 | 11 | 245 | 0.0 | 0.0 | 0.00 | 0.00 | 0.00 | 68 | 1012.7 |
| 20260509112805 | 11 | 246 | 0.0 | 0.0 | 0.00 | 0.00 | 0.00 | 67 | 1012.8 |
| 20260509112306 | 11 | 246 | 0.0 | 0.0 | 0.00 | 0.00 | 0.00 | 68 | 1012.6 |
| 20260509111759 | 11 | 246 | 0.0 | 0.0 | 0.00 | 0.00 | 0.00 | 68 | 1012.8 |
| 20260509111256 | 11 | 246 | 0.0 | 0.0 | 0.00 | 0.00 | 0.00 | 67 | 1012.7 |
| 20260509110754 | 11 | 246 | 0.0 | 0.0 | 0.00 | 0.00 | 0.00 | 66 | 1012.9 |
| 20260509110250 | 11 | 246 | 0.0 | 0.0 | 0.00 | 0.00 | 0.00 | 65 | 1012.8 |
| 20260509105748 | 11 | 246 | 0.0 | 0.0 | 0.00 | 0.00 | 0.00 | 65 | 1012.8 |
| 20260509105245 | 11 | 246 | 0.0 | 0.0 | 0.00 | 0.00 | 0.00 | 65 | 1012.8 |
| 20260509104742 | 10 | 246 | 0.0 | 0.0 | 0.00 | 0.00 | 0.00 | 66 | 1012.7 |
| 20260509104239 | 10 | 246 | 0.0 | 0.0 | 0.00 | 0.00 | 0.00 | 65 | 1012.8 |
| 20260509103737 | 10 | 246 | 0.0 | 0.0 | 0.00 | 0.00 | 0.00 | 66 | 1012.8 |
| 20260509103234 | 10 | 245 | 0.0 | 0.0 | 0.00 | 0.00 | 0.00 | 66 | 1012.8 |
| 20260509102732 | 10 | 245 | 0.0 | 0.0 | 0.00 | 0.00 | 0.00 | 66 | 1012.7 |
| 20260509102228 | 10 | 245 | 0.0 | 1.6 | 0.00 | 0.00 | 0.00 | 66 | 1012.6 |
| 20260509101719 | 10 | 245 | 0.0 | 0.0 | 0.00 | 0.00 | 0.00 | 67 | 1012.6 |
| 20260509101216 | 10 | 245 | 0.0 | 1.6 | 0.00 | 0.00 | 0.00 | 67 | 1012.6 |
| 20260509100713 | 10 | 246 | 0.0 | 1.6 | 0.00 | 0.00 | 0.00 | 68 | 1012.6 |
| 20260509100210 | 10 | 246 | 0.0 | 0.0 | 0.00 | 0.00 | 0.00 | 66 | 1012.7 |
| 20260509095707 | 11 | 246 | 0.0 | 0.0 | 0.00 | 0.00 | 0.00 | 64 | 1012.7 |
| 20260509095205 | 11 | 246 | 0.0 | 0.0 | 0.00 | 0.00 | 0.00 | 65 | 1012.8 |
| 20260509094701 | 11 | 246 | 0.0 | 0.0 | 0.00 | 0.00 | 0.00 | 62 | 1012.4 |
| 20260509094158 | 11 | 246 | 0.0 | 0.0 | 0.00 | 0.00 | 0.00 | 62 | 1012.5 |
| 20260509093656 | 11 | 246 | 0.0 | 0.0 | 0.00 | 0.00 | 0.00 | 62 | 1012.6 |
| 20260509093153 | 11 | 236 | 0.0 | 1.6 | 0.00 | 0.00 | 0.00 | 61 | 1012.6 |
| 20260509092651 | 11 | 220 | 0.0 | 0.0 | 0.00 | 0.00 | 0.00 | 61 | 1012.8 |
| 20260509092149 | 11 | 220 | 0.0 | 0.0 | 0.00 | 0.00 | 0.00 | 60 | 1012.6 |
| 20260509091647 | 11 | 220 | 1.6 | 1.6 | 0.00 | 0.00 | 0.00 | 59 | 1012.8 |
| 20260509091142 | 12 | 220 | 0.0 | 1.6 | 0.00 | 0.00 | 0.00 | 59 | 1012.7 |
| 20260509090640 | 12 | 220 | 1.6 | 1.6 | 0.00 | 0.00 | 0.00 | 59 | 1012.8 |
| 20260509090137 | 12 | 220 | 0.0 | 0.0 | 0.00 | 0.00 | 0.00 | 60 | 1012.7 |
| 20260509085635 | 12 | 220 | 0.0 | 0.0 | 0.00 | 0.00 | 0.00 | 58 | 1012.8 |
| 20260509085130 | 12 | 219 | 0.0 | 0.0 | 0.00 | 0.00 | 0.00 | 58 | 1012.9 |
| 20260509084628 | 12 | 219 | 0.0 | 0.0 | 0.00 | 0.00 | 0.00 | 56 | 1013.0 |
| 20260509084125 | 12 | 156 | 4.8 | 6.4 | 0.00 | 0.00 | 0.00 | 53 | 1012.9 |
| 20260509083622 | 12 | 227 | 0.0 | 1.6 | 0.00 | 0.00 | 0.00 | 56 | 1012.8 |
| 20260509083118 | 12 | 222 | 1.6 | 3.2 | 0.00 | 0.00 | 0.00 | 60 | 1013.1 |
| 20260509082616 | 12 | 218 | 1.6 | 1.6 | 0.00 | 0.00 | 0.00 | 58 | 1013.0 |
| 20260509082113 | 12 | 210 | 0.0 | 0.0 | 0.00 | 0.00 | 0.00 | 59 | 1013.0 |
| 20260509081610 | 12 | 216 | 1.6 | 1.6 | 0.00 | 0.00 | 0.00 | 57 | 1012.8 |
| 20260509081107 | 12 | 215 | 1.6 | 1.6 | 0.00 | 0.00 | 0.00 | 56 | 1013.0 |
| 20260509080605 | 12 | 208 | 0.0 | 1.6 | 0.00 | 0.00 | 0.00 | 55 | 1013.0 |
| 20260509080103 | 13 | 227 | 1.6 | 4.8 | 0.00 | 0.00 | 0.00 | 53 | 1013.1 |
| 20260509075601 | 13 | 205 | 1.6 | 3.2 | 0.00 | 0.00 | 0.00 | 53 | 1013.1 |
| 20260509075059 | 13 | 236 | 1.6 | 11.3 | 0.00 | 0.00 | 0.00 | 51 | 1013.1 |
| 20260509074555 | 13 | 156 | 3.2 | 4.8 | 0.00 | 0.00 | 0.00 | 51 | 1013.0 |
| 20260509074052 | 13 | 257 | 4.8 | 9.7 | 0.00 | 0.00 | 0.00 | 52 | 1013.1 |
| 20260509073548 | 13 | 207 | 3.2 | 6.4 | 0.00 | 0.00 | 0.00 | 51 | 1013.1 |
| 20260509073044 | 12 | 167 | 6.4 | 6.4 | 0.00 | 0.00 | 0.00 | 52 | 1013.1 |
| 20260509072540 | 12 | 220 | 0.0 | 3.2 | 0.00 | 0.00 | 0.00 | 57 | 1013.2 |
| 20260509072038 | 13 | 186 | 0.0 | 4.8 | 0.00 | 0.00 | 0.00 | 54 | 1013.2 |
| 20260509071534 | 13 | 223 | 1.6 | 4.8 | 0.00 | 0.00 | 0.00 | 52 | 1013.2 |
| 20260509071032 | 13 | 199 | 0.0 | 1.6 | 0.00 | 0.00 | 0.00 | 53 | 1013.3 |
| 20260509070529 | 13 | 197 | 1.6 | 3.2 | 0.00 | 0.00 | 0.00 | 52 | 1013.4 |
| 20260509070025 | 13 | 189 | 0.0 | 3.2 | 0.00 | 0.00 | 0.00 | 51 | 1013.4 |
| 20260509065520 | 13 | 259 | 1.6 | 3.2 | 0.00 | 0.00 | 0.00 | 52 | 1013.2 |
| 20260509065017 | 13 | 221 | 0.0 | 4.8 | 0.00 | 0.00 | 0.00 | 52 | 1013.5 |
| 20260509064515 | 13 | 165 | 1.6 | 6.4 | 0.00 | 0.00 | 0.00 | 53 | 1013.4 |
| 20260509064013 | 12 | 231 | 1.6 | 9.7 | 0.00 | 0.00 | 0.00 | 55 | 1013.3 |
| 20260509063508 | 12 | 179 | 3.2 | 6.4 | 0.00 | 0.00 | 0.00 | 55 | 1013.3 |
| 20260509063005 | 11 | 203 | 3.2 | 3.2 | 0.00 | 0.00 | 0.00 | 57 | 1013.3 |
| 20260509062502 | 11 | 205 | 1.6 | 3.2 | 0.00 | 0.00 | 0.00 | 59 | 1013.7 |
| 20260509062000 | 11 | 220 | 0.0 | 1.6 | 0.00 | 0.00 | 0.00 | 59 | 1013.7 |
| 20260509061457 | 11 | 220 | 1.6 | 1.6 | 0.00 | 0.00 | 0.00 | 57 | 1013.6 |
| 20260509060954 | 12 | 229 | 1.6 | 3.2 | 0.00 | 0.00 | 0.00 | 56 | 1013.6 |
| 20260509060452 | 12 | 245 | 1.6 | 3.2 | 0.00 | 0.00 | 0.00 | 55 | 1013.7 |
| 20260509055947 | 12 | 237 | 1.6 | 3.2 | 0.00 | 0.00 | 0.00 | 56 | 1013.7 |
| 20260509055442 | 12 | 234 | 1.6 | 3.2 | 0.00 | 0.00 | 0.00 | 56 | 1013.7 |
| 20260509054939 | 12 | 236 | 1.6 | 3.2 | 0.00 | 0.00 | 0.00 | 54 | 1013.6 |
| 20260509054436 | 12 | 250 | 1.6 | 3.2 | 0.00 | 0.00 | 0.00 | 56 | 1013.6 |
| 20260509053934 | 12 | 225 | 1.6 | 6.4 | 0.00 | 0.00 | 0.00 | 55 | 1013.8 |
| 20260509053432 | 12 | 245 | 1.6 | 3.2 | 0.00 | 0.00 | 0.00 | 55 | 1013.8 |
| 20260509052929 | 12 | 232 | 1.6 | 3.2 | 0.00 | 0.00 | 0.00 | 53 | 1014.0 |
| 20260509052426 | 12 | 198 | 3.2 | 4.8 | 0.00 | 0.00 | 0.00 | 52 | 1013.8 |
| 20260509051924 | 12 | 262 | 3.2 | 4.8 | 0.00 | 0.00 | 0.00 | 53 | 1013.9 |
| 20260509051422 | 13 | 164 | 3.2 | 4.8 | 0.00 | 0.00 | 0.00 | 52 | 1014.0 |
| 20260509050918 | 13 | 167 | 4.8 | 6.4 | 0.00 | 0.00 | 0.00 | 51 | 1014.0 |
| 20260509050415 | 13 | 236 | 1.6 | 4.8 | 0.00 | 0.00 | 0.00 | 52 | 1013.9 |
| 20260509045912 | 13 | 220 | 3.2 | 4.8 | 0.00 | 0.00 | 0.00 | 51 | 1013.9 |